RH
17 21 18 18 32 43 52 59 40 40 48 43 45 42 36 35 34 32 29 30 30 30 33 32 30 30 28 26 25 25 26 26 26 26 27 26 26 26 28 30 31 32 36 34
16 21 19 18 29 41 54 58 63 77 67 57 56 50 41 37 35 38 35 33 34 36 34 33 35 34 31 30 30 29 29 29 28 28 29 30 30 30 31 32 35 40 37 33
15 23 21 20 26 48 69 77 84 82 80 75 65 55 53 42 38 40 40 38 37 38 39 38 40 39 37 36 35 34 32 32 33 33 32 32 34 35 36 38 43 44 39 30
15 20 21 19 26 49 66 82 96 100 89 81 71 68 65 52 43 40 44 45 45 50 48 50 48 49 47 45 42 41 38 38 38 40 40 41 39 40 42 48 51 50 37 29
14 20 17 18 21 40 68 88 96 94 100 97 83 72 72 63 54 48 50 53 55 56 57 59 54 56 54 55 51 50 46 45 48 48 48 49 52 54 54 54 45 34 29 28
12 17 18 19 22 31 51 74 86 87 89 79 80 78 72 69 63 57 54 56 57 56 57 56 51 54 64 67 62 61 58 60 64 63 63 63 61 57 48 43 37 30 30 29
8 16 18 18 21 26 37 43 48 50 56 75 75 70 69 70 67 64 60 58 54 51 50 51 53 58 63 68 71 72 73 73 74 73 67 61 51 46 44 37 31 32 31 28
6 12 19 20 21 25 29 41 45 50 65 74 75 64 66 66 64 63 61 58 55 55 56 61 63 62 64 71 81 82 78 68 58 57 48 47 51 43 34 33 34 32 30 28
6 8 18 23 24 26 30 36 50 55 64 72 61 64 67 67 68 66 63 59 57 57 59 59 57 61 66 71 76 78 73 64 51 48 52 48 41 37 36 37 35 36 35 36
6 10 13 24 25 27 31 32 46 53 69 69 60 61 73 76 74 67 68 65 64 63 62 62 63 68 78 78 77 81 78 67 62 56 47 40 38 39 39 38 38 42 45 39
12 11 14 22 27 28 29 33 38 48 59 57 58 55 58 69 74 71 71 67 67 63 68 76 75 65 64 67 76 84 81 71 60 53 44 44 41 42 40 40 44 52 48 41
12 15 19 17 23 28 29 32 37 46 57 56 51 50 56 58 60 56 57 66 72 62 58 62 61 59 60 62 68 64 55 49 48 46 42 41 40 38 40 44 55 48 57 40
40 27 22 32 22 25 28 28 35 38 47 58 60 58 50 41 47 57 58 63 64 60 66 64 60 61 62 64 59 49 47 46 45 40 39 35 37 40 45 57 51 65 55 44
45 44 47 40 44 42 31 31 31 34 34 39 41 48 53 48 43 47 55 61 64 68 70 56 42 40 41 55 62 49 43 44 42 37 37 39 41 45 51 52 54 76 51 46
33 47 47 48 52 57 64 53 43 41 40 37 40 38 44 44 45 52 55 55 54 59 58 46 43 46 57 52 43 43 43 45 44 43 38 38 36 40 48 53 73 69 57 56
42 34 38 54 60 50 51 55 62 64 70 77 76 73 65 60 69 80 68 70 75 63 55 52 60 55 42 45 44 45 50 50 43 42 42 42 44 46 51 69 77 73 65 68
50 44 46 34 42 54 67 61 54 56 51 54 52 50 50 48 53 52 51 52 52 47 46 47 49 52 51 48 46 39 41 39 38 36 39 42 48 59 72 74 78 70 81 87
72 64 53 47 49 41 45 57 60 62 61 59 58 58 63 55 52 54 48 45 44 45 47 46 44 41 41 44 47 48 45 44 47 49 48 54 60 65 69 71 78 80 80 94
84 81 76 82 59 55 46 44 52 52 64 64 63 69 72 67 62 61 63 66 66 63 64 64 63 64 64 63 63 68 71 70 65 64 63 64 68 73 74 78 84 83 83 84
93 98 84 76 82 83 93 57 50 47 56 63 58 66 69 69 69 72 72 73 78 79 79 80 95 100 100 100 99 83 75 72 71 71 74 72 65 73 80 79 76 79 89 93
100 96 100 91 87 87 83 94 97 71 76 76 68 58 60 65 68 71 76 76 83 82 72 74 83 93 99 100 100 100 100 100 100 100 100 96 95 93 91 91 86 86 85 76
98 100 99 88 84 91 88 83 72 89 100 100 97 95 85 63 50 56 70 78 84 86 96 99 96 74 72 73 74 82 89 94 100 100 100 96 88 86 81 79 78 77 73 74
100 100 100 100 91 88 92 96 92 70 68 76 90 100 100 100 100 99 84 64 58 72 83 79 79 90 98 92 88 85 82 78 74 78 84 90 95 98 91 78 84 100 100 100
89 100 100 99 100 93 88 100 100 100 100 88 82 88 81 98 100 100 100 100 89 77 57 56 63 70 78 79 78 84 81 74 70 67 67 70 82 90 96 100 100 96 86 86
100 100 100 100 90 97 96 87 99 100 100 95 87 86 94 97 92 93 94 98 99 95 90 75 66 53 54 55 58 57 59 62 60 59 62 66 69 65 68 69 72 74 74 77
100 100 100 86 93 96 94 99 96 85 87 94 98 92 80 82 100 99 97 92 83 79 66 61 63 62 49 46 42 43 44 47 52 56 52 52 54 55 56 60 60 56 61 69
Wind_Speed
93 90 82 79 78 82 82 83 82 78 76 74 72 71 68 66 63 61 59 56 53 51 50 49 47 45 46 45 45 46 47 47 49 49 50 52 53 55 59 62 64 67 70 72
97 94 85 78 77 79 78 77 79 78 77 75 72 72 71 68 66 63 61 60 57 55 54 53 52 50 51 50 51 51 52 54 54 55 57 57 58 60 63 66 68 72 74 77
98 95 89 83 80 80 82 81 78 79 77 74 75 72 70 69 68 66 64 63 61 59 58 56 55 55 54 55 56 57 57 57 59 60 61 62 63 65 68 70 74 77 80 82
97 96 90 85 82 82 82 79 80 79 78 75 74 72 71 70 69 68 67 65 64 63 61 59 59 59 59 60 60 60 60 61 63 64 65 67 68 70 72 77 80 81 84 88
93 96 91 87 83 82 82 82 81 81 78 77 75 74 73 72 71 70 69 68 66 66 64 63 63 63 63 63 64 63 64 64 66 68 68 70 72 75 79 81 83 86 89 89
85 96 93 88 84 84 82 83 83 80 78 74 73 72 73 72 71 70 70 69 68 68 67 67 67 66 67 67 67 67 67 68 69 70 71 74 76 80 82 83 89 90 90 86
70 91 92 87 84 81 79 78 76 74 72 69 68 69 69 69 69 69 69 69 69 70 70 70 70 69 70 70 70 71 71 71 72 74 75 77 80 82 85 89 89 89 86 79
58 77 92 89 85 81 78 75 72 70 66 66 67 64 63 66 67 68 69 69 70 71 71 71 70 69 69 69 69 69 71 72 74 75 77 81 83 87 89 89 88 84 76 72
39 63 86 91 87 83 80 76 74 71 70 70 66 62 64 64 64 65 67 67 67 67 68 67 66 66 66 67 69 71 73 76 78 81 83 85 90 91 88 86 79 71 68 68
20 42 71 88 88 84 80 78 76 75 73 71 68 66 66 65 65 66 66 67 66 65 65 65 66 68 70 71 72 74 78 81 84 86 89 92 91 89 86 77 66 62 61 59
10 23 47 76 85 84 82 79 77 76 74 73 71 69 69 69 70 70 69 68 68 67 67 69 71 73 75 76 78 81 84 87 91 93 94 93 92 83 73 63 58 55 50 52
10 10 28 50 71 79 81 79 78 77 76 75 75 73 72 72 71 71 72 72 71 72 73 74 77 79 81 82 85 88 90 93 95 94 94 85 75 68 62 58 52 47 44 46
37 21 7 31 46 63 74 77 78 79 78 76 76 73 76 76 76 75 75 76 76 78 79 81 83 85 87 89 91 94 95 93 94 89 80 69 65 61 55 52 47 39 42 43
30 30 26 11 27 58 61 70 73 76 79 81 78 79 80 79 80 81 81 81 82 85 87 88 88 90 92 94 96 96 92 87 77 70 67 65 63 60 58 50 37 37 40 37
25 20 18 17 14 1 45 65 66 75 80 73 81 81 84 82 84 86 88 89 90 90 92 93 93 94 95 96 88 79 68 65 65 65 64 61 55 48 38 33 34 38 38 38
36 23 11 8 8 6 2 5 18 37 59 75 81 81 82 78 84 88 86 92 94 96 96 96 97 87 68 65 64 62 60 59 53 47 43 39 32 28 30 32 36 39 40 40
47 34 25 14 9 9 11 12 14 16 16 21 28 33 39 42 46 49 52 55 58 59 60 62 62 62 61 57 54 49 44 44 42 40 36 34 33 33 35 38 41 42 43 44
44 45 41 28 20 17 17 20 22 23 25 27 30 31 32 33 34 36 38 41 44 46 47 46 45 45 44 43 43 43 43 43 41 39 39 39 40 41 43 46 47 48 49 49
43 43 44 44 39 32 26 26 24 29 35 37 37 38 40 41 42 44 46 46 46 46 47 47 48 48 49 49 49 49 48 47 47 47 47 48 48 50 51 52 53 55 56 56
48 47 51 47 44 43 47 42 35 34 37 35 40 46 49 50 51 53 52 52 52 54 55 56 56 55 56 57 59 60 60 60 59 59 59 59 60 60 61 61 62 62 62 63
57 55 53 55 52 52 50 50 51 51 50 51 51 49 48 50 55 60 62 62 62 62 63 63 64 65 66 67 67 67 68 68 68 67 66 66 67 68 67 68 67 68 68 68
64 65 64 64 58 59 62 58 54 53 55 59 62 62 63 63 61 59 60 65 68 71 73 73 74 75 76 76 76 76 77 77 77 76 76 76 75 75 75 76 76 75 75 75
72 72 70 72 72 65 65 66 68 62 57 59 64 69 71 70 71 75 75 72 72 73 73 75 79 81 83 85 86 86 86 86 87 87 87 86 86 85 83 82 81 81 80 79
77 79 78 81 82 77 70 73 74 75 77 76 75 72 74 77 80 80 80 82 84 84 83 83 85 86 85 86 89 91 91 91 92 92 92 94 95 93 92 91 91 92 91 90
82 85 88 89 88 85 82 75 78 83 83 84 87 84 77 79 82 85 86 87 89 91 90 89 90 89 92 95 96 96 95 95 96 96 96 96 96 96 98 99 99 99 97 96
88 93 96 96 94 92 90 87 81 80 83 89 92 91 84 80 81 86 89 93 95 97 97 96 96 96 94 92 94 95 98 101 100 99 98 98 99 100 100 99 97 97 95 96
Wind_Direction
201 204 203 203 204 207 211 213 215 217 222 224 226 230 233 237 239 242 246 248 251 254 257 260 263 266 269 272 274 277 278 278 279 281 284 287 289 291 293 296 296 297 300 303
201 204 203 202 205 207 211 214 214 216 219 222 226 229 233 236 240 242 246 249 252 254 257 260 264 267 271 274 277 277 278 279 282 285 287 288 291 293 293 292 295 300 303 302
200 202 201 202 206 206 209 212 214 218 221 224 227 230 232 236 239 242 246 249 252 255 258 261 264 268 271 274 276 277 280 282 284 286 288 289 291 291 291 294 299 300 302 303
201 203 201 203 205 208 209 212 216 221 224 227 231 232 235 237 240 242 245 249 252 254 258 261 264 267 269 271 273 277 280 280 282 285 286 287 290 292 294 296 298 301 301 301
203 204 204 202 206 209 211 213 218 222 226 231 234 234 235 237 240 242 245 247 251 255 258 261 264 268 270 271 274 277 279 281 283 284 287 289 291 292 294 298 301 301 301 301
203 205 206 203 206 210 213 216 220 224 228 230 232 234 236 238 241 244 246 248 252 256 259 261 264 267 269 271 273 276 278 280 282 284 287 289 291 293 298 300 300 300 301 300
202 206 207 205 206 210 214 217 221 224 226 229 232 234 236 238 241 244 247 250 252 256 259 262 264 267 270 272 274 276 278 280 284 286 288 290 294 298 299 299 299 300 301 300
203 205 207 207 208 211 215 218 222 224 226 229 231 233 237 240 242 245 248 251 253 256 259 262 265 267 271 274 276 279 281 282 284 287 291 294 298 299 298 298 299 300 300 301
204 206 206 208 209 211 215 218 221 223 225 228 232 233 237 241 244 246 249 252 255 257 260 264 268 271 274 278 280 281 283 285 287 290 294 296 296 297 297 298 300 300 301 301
196 208 206 208 209 212 216 220 222 224 226 230 234 236 241 244 247 250 253 255 258 261 264 268 272 274 275 278 281 283 284 286 289 293 294 296 296 296 297 298 299 299 299 301
180 208 209 210 211 214 217 221 225 229 231 234 237 240 243 247 250 253 256 259 263 265 268 270 273 276 278 280 283 284 286 288 291 292 295 294 295 295 295 295 296 294 295 300
81 185 220 216 218 220 219 223 227 231 234 238 241 244 247 250 254 257 259 261 265 268 271 274 275 277 280 282 284 286 288 289 290 291 293 293 292 291 291 290 290 286 290 300
49 52 153 222 231 230 228 230 232 234 238 242 246 248 251 254 258 261 264 265 267 270 273 275 277 278 280 282 284 286 287 289 289 290 290 288 287 287 286 285 281 280 288 298
40 49 50 51 230 233 235 237 238 241 243 246 250 252 255 258 262 264 267 270 271 272 272 274 278 279 282 283 285 286 286 288 287 285 285 284 284 283 280 277 268 279 288 297
20 31 33 43 54 272 245 245 246 245 248 253 254 256 257 261 263 263 266 268 270 271 272 276 281 281 281 280 283 283 283 282 284 285 285 284 282 279 271 259 269 277 286 293
14 11 10 10 0 356 29 231 245 252 254 253 256 258 261 262 265 267 271 271 272 273 274 277 276 277 276 277 280 280 279 281 281 280 278 276 270 262 260 265 271 278 285 290
359 4 354 340 298 265 277 274 271 267 265 265 262 263 261 262 264 264 266 268 268 269 271 273 275 276 277 277 277 276 273 272 271 273 271 268 267 267 266 270 272 277 282 290
346 343 348 337 317 302 274 264 264 262 260 263 265 266 266 268 270 270 271 273 272 272 272 273 272 272 271 269 268 268 267 268 270 271 271 271 270 269 269 271 274 279 283 286
331 332 331 323 328 315 295 280 271 266 268 266 264 264 265 265 263 262 265 267 268 268 270 273 274 274 273 272 272 272 273 274 274 272 271 269 268 269 271 273 276 278 281 283
322 318 320 317 311 307 301 301 293 282 282 275 270 266 265 264 264 264 264 265 265 265 267 267 268 270 271 273 274 275 275 275 275 274 274 274 272 272 274 275 276 279 281 283
315 314 310 311 304 302 303 295 291 294 293 291 288 283 276 270 266 264 264 265 266 267 268 268 268 268 269 269 269 269 270 270 270 270 270 270 270 272 275 276 276 277 278 280
306 308 309 310 304 297 297 299 294 288 286 286 285 285 285 286 282 275 271 269 267 266 265 267 269 269 270 269 269 269 268 268 270 272 273 273 272 271 271 272 274 275 275 276
296 299 304 306 308 299 291 295 297 297 294 288 283 281 282 283 284 285 285 282 275 271 271 270 269 268 269 269 269 269 269 269 270 270 270 270 270 271 272 273 273 274 274 275
296 294 298 300 303 305 301 286 287 291 293 294 296 293 279 278 279 279 281 283 283 282 280 276 272 270 270 271 269 268 268 269 269 268 268 267 267 267 268 269 270 270 270 272
288 289 294 298 298 302 302 296 285 284 286 290 293 296 289 283 281 278 278 278 279 279 280 280 279 276 274 272 272 272 272 273 272 271 271 270 268 268 267 267 267 267 268 269
284 287 293 297 299 300 303 298 293 290 288 288 294 294 292 285 283 280 279 278 278 279 279 279 280 280 278 276 274 274 273 273 273 274 274 273 272 272 271 270 270 268 267 269